Theta_e
340 327 318 320 319 320 320 320 320 321 322 323 325 327 328 328 329 329 330 330 331 332 332 333 334 334 334 334 334 333 333 332 331 328 322 316 311 311 311 311 310 312 316 316 314 321 329 331 332 335 333 328 325 323 322 322 320 314 311 313 313 314 314 314 314 314 314 314 313 313 312 313 313 313 314 314 313 314 313 314 314 315 315 316 316
340 328 318 320 319 320 320 320 320 321 322 323 325 326 327 327 328 329 330 331 332 332 332 333 334 335 335 334 334 334 331 328 326 324 319 314 311 311 312 310 310 315 319 318 316 315 322 332 334 333 328 323 321 320 319 318 315 312 312 313 313 314 314 314 314 314 314 313 313 313 312 311 312 312 312 313 313 313 314 313 314 314 315 315 315
340 333 322 319 319 319 320 320 320 321 322 323 324 325 326 327 328 329 330 331 331 331 332 333 334 335 335 335 334 333 329 324 323 322 315 314 315 311 312 311 309 313 317 318 319 315 318 329 332 328 321 318 317 316 315 314 312 312 312 313 314 314 314 314 314 315 316 317 316 314 314 312 311 312 312 312 313 312 313 313 313 313 314 315 315
338 339 326 318 319 319 319 320 320 321 321 323 324 325 326 327 328 329 330 331 331 331 332 333 334 335 335 335 333 331 328 323 321 318 311 316 320 310 310 310 309 313 314 318 318 314 317 326 328 323 316 314 314 313 313 312 312 313 313 313 314 314 315 316 318 319 320 322 321 319 320 317 312 311 312 311 312 312 312 312 313 313 314 315 315
336 337 325 317 320 318 320 319 320 321 321 323 323 325 326 328 328 329 330 330 330 331 333 334 334 334 336 335 332 330 327 320 315 313 309 314 316 309 310 308 310 312 312 320 321 317 321 326 325 318 313 312 312 312 312 312 312 312 313 313 314 315 317 319 323 324 325 325 325 325 325 326 320 313 314 313 313 314 314 314 315 316 316 317 317
334 331 322 318 320 318 319 319 320 321 321 323 323 325 326 328 328 329 329 329 330 332 334 334 333 332 334 334 330 327 324 317 312 313 310 309 310 309 309 308 311 311 314 324 324 322 325 325 321 314 312 312 312 312 312 312 312 313 313 313 314 316 319 322 326 327 327 327 327 328 328 331 327 317 316 317 317 317 317 318 318 319 319 320 320
335 325 319 318 319 319 319 319 320 321 322 323 323 325 326 328 328 328 328 328 330 333 335 335 334 333 332 331 328 326 324 317 312 312 310 308 308 308 308 309 311 311 318 324 322 323 325 321 316 312 312 312 312 312 312 312 312 313 313 313 315 316 320 324 327 328 328 329 329 329 330 332 327 318 318 319 319 320 319 320 320 320 321 322 323
337 323 317 319 318 319 319 318 320 321 322 323 324 325 326 327 327 328 328 328 331 334 336 335 335 334 333 330 327 325 324 319 313 312 310 309 308 308 308 310 310 312 321 324 321 322 321 316 313 311 311 311 312 312 312 312 312 313 313 313 315 317 322 325 327 327 328 329 330 332 332 331 325 319 319 319 319 320 321 321 321 322 323 324 326
340 325 316 319 318 319 318 318 319 321 322 323 324 325 326 327 327 327 327 329 332 334 335 336 335 334 333 329 326 324 322 318 313 311 309 308 308 308 308 309 310 314 320 321 321 320 316 313 312 311 311 311 312 312 312 312 313 313 313 314 317 323 327 327 327 327 328 328 329 331 331 330 327 322 319 319 320 322 323 323 324 325 326 327 328
342 328 316 318 318 318 318 318 319 320 322 323 324 325 326 326 327 327 327 330 333 335 335 336 335 333 332 328 325 323 319 314 311 309 309 308 307 307 307 308 311 315 319 319 320 317 313 312 311 311 311 311 312 312 312 312 313 313 314 318 323 328 330 329 329 329 330 329 328 330 331 331 329 326 324 323 323 324 325 326 327 328 329 329 329
341 329 315 317 318 318 319 319 318 319 321 322 324 325 326 327 327 327 328 332 333 335 335 335 334 333 331 327 324 322 317 311 309 309 309 308 307 307 308 308 312 317 319 319 318 315 312 312 311 311 311 311 312 312 312 312 313 313 315 320 325 328 331 330 330 330 331 331 331 331 331 331 329 329 328 325 325 326 328 329 329 330 330 330 330
339 328 315 316 318 318 319 319 318 319 319 322 324 325 326 327 327 328 331 333 334 334 334 334 333 332 330 327 325 321 314 310 310 310 308 308 308 307 308 309 313 318 319 319 317 313 312 312 311 311 311 311 311 312 312 312 312 313 316 321 327 330 331 331 331 331 331 332 332 330 330 330 330 331 329 326 327 328 329 330 330 330 330 331 331
336 327 316 316 317 319 319 319 319 318 319 321 324 324 326 328 328 330 331 332 333 333 334 333 333 331 329 328 325 318 311 310 310 310 308 308 308 308 308 309 312 317 318 318 315 312 311 312 311 311 311 311 311 312 312 312 313 313 317 325 330 331 331 332 331 331 330 331 331 330 331 331 330 331 329 327 328 329 330 331 330 330 331 330 331
337 330 323 318 317 320 319 319 320 318 318 320 322 324 325 327 328 330 331 331 332 333 332 332 332 330 329 328 322 314 309 310 311 310 309 308 308 308 308 309 311 316 318 317 314 312 312 312 311 311 311 311 311 312 312 313 313 314 321 328 331 331 332 333 331 330 330 330 330 331 331 330 330 331 328 328 330 331 331 331 331 331 330 329 329
340 335 330 323 318 320 320 319 319 319 319 319 321 323 325 327 328 329 331 331 331 332 332 332 331 329 328 325 316 310 309 310 311 311 309 308 308 308 308 309 311 315 318 316 313 312 312 312 312 312 311 311 311 312 312 313 314 317 324 330 331 332 333 333 331 331 331 329 329 330 330 330 331 330 328 329 331 331 330 330 330 330 329 328 328
343 338 331 323 319 320 320 320 320 320 319 318 321 323 325 327 328 329 330 331 331 331 332 332 329 327 326 319 311 308 309 309 310 311 310 309 308 308 308 309 310 313 316 315 313 312 312 312 312 313 312 312 312 313 314 315 317 318 325 331 331 331 332 332 332 331 331 329 328 329 330 331 332 330 329 330 330 330 329 329 330 329 329 328 328
345 341 333 323 320 320 320 320 321 320 319 319 322 323 325 328 329 329 329 330 332 331 331 330 327 326 321 313 308 308 308 308 309 310 310 309 309 308 308 308 310 312 315 315 313 312 312 312 312 313 313 314 314 316 317 319 320 319 322 327 327 328 331 332 332 331 331 331 330 331 331 331 331 329 329 329 329 329 329 329 329 329 328 327 327
345 343 337 327 321 320 320 320 321 320 319 320 322 324 326 329 330 330 330 330 332 331 330 328 326 322 315 309 308 308 308 308 309 310 311 310 309 309 308 308 309 311 313 314 313 312 312 312 312 313 314 316 318 319 320 320 320 319 318 322 327 329 332 332 331 332 332 331 332 332 332 331 330 329 329 328 328 328 328 328 327 327 326 325 326
344 340 335 328 322 320 321 320 320 320 319 321 324 326 328 330 331 331 331 331 332 330 329 327 323 317 310 308 308 308 309 309 309 310 311 311 310 309 309 308 308 310 312 312 312 312 312 312 312 313 316 319 320 319 318 317 317 316 316 322 329 332 333 332 330 332 332 332 331 332 332 331 329 328 328 327 326 326 326 325 325 325 326 326 328
341 336 329 324 321 321 321 320 321 321 321 323 327 329 329 330 331 332 331 331 331 329 328 325 318 312 308 308 308 309 309 309 309 309 310 311 311 310 309 308 308 308 310 311 312 312 313 312 313 315 318 320 318 317 318 318 317 318 320 326 331 333 334 331 329 332 333 332 331 332 332 331 328 327 326 325 323 323 324 325 325 327 328 329 329
339 335 331 325 320 321 322 321 322 322 324 327 330 330 329 331 332 332 331 331 330 328 327 321 313 309 308 309 309 310 312 311 311 310 310 310 311 311 310 310 308 308 308 310 311 313 313 313 315 316 318 316 316 321 325 326 324 325 329 331 332 333 334 332 331 333 333 333 332 332 332 330 327 325 324 323 324 325 326 326 327 328 329 330 330
339 338 337 333 324 321 322 323 325 325 328 330 331 330 329 331 332 331 330 330 328 326 324 317 311 311 310 310 313 317 319 318 316 314 312 310 311 311 311 311 310 309 308 308 309 311 312 314 315 314 314 313 318 328 330 330 329 330 333 333 334 334 333 333 333 334 334 334 333 333 332 328 325 324 324 325 327 327 326 327 328 329 329 329 329
340 339 339 338 334 329 324 324 328 328 330 332 331 329 330 330 330 330 329 328 327 325 321 315 312 312 311 312 318 326 327 325 324 324 321 317 312 310 311 313 312 311 311 310 309 309 310 311 311 313 320 320 322 330 331 331 331 331 333 333 334 334 333 334 334 334 334 334 333 332 330 327 324 325 327 327 327 328 328 327 328 329 328 329 329
341 340 339 338 338 337 332 326 328 331 331 333 331 330 331 329 329 329 328 327 325 324 319 314 313 314 316 317 320 328 330 330 332 333 333 328 319 313 310 311 313 314 313 313 312 311 312 315 318 322 329 329 328 330 332 332 331 332 332 333 333 333 334 334 333 333 334 334 333 330 328 326 324 326 327 326 327 328 328 326 328 328 328 328 328
341 340 339 339 338 339 338 332 330 334 333 334 334 332 331 330 330 329 330 329 325 323 317 313 315 318 324 326 326 330 333 333 334 336 336 334 330 324 316 313 317 319 318 320 321 319 321 325 329 330 331 331 332 332 332 331 331 332 332 333 333 333 334 334 333 333 334 332 330 328 326 326 324 324 325 326 327 328 327 327 328 328 327 327 327
342 341 339 340 339 339 340 335 332 336 335 336 337 334 333 332 332 332 332 330 327 323 316 316 320 323 329 332 331 334 335 335 335 336 336 334 334 332 326 323 326 328 325 327 329 328 329 331 332 333 332 332 333 332 331 332 332 333 332 333 333 333 334 333 333 334 333 330 327 325 323 325 325 324 325 325 327 327 326 327 327 327 327 326 326
342 342 340 340 339 340 340 335 334 337 336 338 339 336 334 334 334 335 334 331 328 326 321 322 326 326 330 332 333 335 336 336 335 335 335 334 334 334 332 332 333 334 332 332 332 332 332 332 333 332 332 332 332 333 332 333 333 334 333 333 334 333 332 332 333 333 331 328 325 322 321 324 325 324 324 325 325 325 325 325 325 324 324 322 321
343 342 341 341 340 340 339 335 334 336 336 339 340 337 335 336 337 337 336 334 330 327 326 329 332 331 331 332 332 334 336 336 335 334 334 334 335 334 333 335 335 335 336 334 334 334 333 333 333 333 332 332 332 333 334 334 334 334 333 333 333 333 332 332 332 332 330 328 326 322 319 321 322 321 322 322 322 322 321 320 319 319 316 313 310
343 342 341 341 341 340 340 336 335 335 335 340 341 338 336 337 339 339 337 335 332 331 331 332 333 331 331 330 330 335 337 336 336 335 333 334 335 334 334 337 337 336 337 336 335 335 335 334 334 334 334 333 333 334 334 335 335 334 333 332 332 334 333 333 332 331 330 328 325 321 318 318 318 317 317 316 315 313 312 310 309 308 306 304 302
342 342 342 341 341 340 339 337 337 336 336 340 342 339 337 338 339 339 337 336 336 335 333 333 332 329 329 331 332 336 337 337 337 335 333 334 335 335 336 337 337 337 337 336 336 336 336 335 334 335 335 334 334 333 333 334 334 333 333 333 332 333 332 332 331 330 329 328 325 321 318 316 316 315 312 308 306 305 304 303 302 302 301 301 301
342 342 342 341 340 340 339 337 338 338 338 340 341 340 339 339 340 339 338 337 338 337 334 335 334 330 329 333 335 335 335 338 337 335 335 335 335 335 337 336 337 337 337 337 337 336 336 335 334 335 334 334 334 333 333 333 333 333 333 333 333 332 332 331 331 330 329 327 324 321 318 315 314 312 307 303 302 302 302 302 302 301 301 301 301
342 342 342 341 339 339 339 338 338 338 338 340 340 340 340 340 340 339 338 337 337 336 335 336 335 331 331 334 335 334 334 337 337 336 335 334 334 333 335 335 336 337 337 337 337 335 336 336 335 335 334 334 334 333 333 333 332 332 332 332 332 331 330 331 330 329 327 325 323 321 318 315 311 306 303 302 302 302 301 302 301 301 301 301 301
342 342 342 341 340 339 339 337 338 338 339 340 340 340 340 340 341 339 337 336 336 334 334 335 332 331 334 334 334 334 334 335 336 335 334 334 332 332 335 334 335 337 336 336 336 336 336 335 334 333 334 334 334 333 333 332 332 331 331 330 328 326 327 329 328 327 326 325 324 321 319 315 308 303 302 301 302 302 301 301 301 301 301 301 301
342 342 341 341 340 339 339 336 336 338 339 339 340 340 339 340 340 339 336 334 333 332 334 335 332 331 334 334 334 334 334 335 334 334 334 334 332 333 335 334 333 335 335 334 335 336 335 334 333 332 333 333 333 333 332 332 331 331 330 328 326 324 324 325 326 326 326 325 324 322 320 314 306 302 302 302 301 301 301 301 301 301 301 300 300
342 342 341 341 340 338 338 336 336 338 338 339 339 339 339 339 339 338 335 333 332 333 336 337 333 330 333 335 335 334 334 334 333 333 333 331 330 331 331 331 332 333 334 334 334 335 334 333 333 332 333 333 332 332 332 332 331 330 329 327 326 325 323 322 322 323 324 324 322 320 315 308 303 301 302 301 301 301 301 301 300 301 300 300 300
342 342 341 341 339 337 337 336 336 338 338 339 339 338 339 339 339 337 334 334 333 333 336 337 334 330 333 335 335 335 334 333 333 333 334 332 330 330 330 331 332 332 334 334 333 333 333 332 332 332 333 332 331 332 332 331 331 330 329 326 325 324 323 320 318 317 318 317 313 309 305 302 301 301 301 301 301 301 301 300 300 300 300 300 299
343 342 341 341 339 337 337 334 335 338 338 339 339 339 339 339 338 337 336 335 332 332 335 335 334 332 333 335 335 334 333 333 334 335 336 336 334 335 334 333 334 334 333 333 331 331 330 330 332 332 332 331 331 331 331 330 330 329 328 325 324 321 318 317 317 315 311 307 304 302 301 301 301 301 301 301 301 300 300 300 300 300 300 300 299
343 342 342 341 339 338 336 333 335 338 337 339 339 338 340 339 338 338 337 335 329 329 334 334 334 334 334 335 334 333 332 332 334 335 337 337 336 336 336 334 334 334 332 331 331 331 329 328 330 332 332 331 331 331 330 330 329 328 325 322 320 318 316 314 313 310 306 303 302 302 302 301 301 301 301 300 300 300 300 300 300 300 300 300 300
343 343 342 340 340 338 335 334 336 337 336 338 339 338 340 338 338 338 337 333 327 327 332 334 335 335 334 334 333 332 332 333 334 335 336 336 336 336 334 332 331 331 331 330 330 331 329 327 327 330 333 331 331 331 330 329 327 322 319 317 317 316 313 309 307 304 303 302 302 302 301 301 301 301 300 300 300 299 300 299 299 299 299 299 299
343 343 342 341 340 339 336 335 337 336 335 338 339 338 339 338 338 337 336 332 326 326 331 334 335 335 334 333 333 332 332 333 333 335 335 335 336 335 332 329 328 329 329 329 328 327 326 325 324 327 330 330 331 330 329 330 323 314 313 315 315 312 308 305 303 302 301 301 302 301 301 301 301 301 300 300 299 299 299 299 299 299 299 299 299
343 342 342 341 340 339 336 335 335 335 336 338 338 338 337 337 337 335 334 331 327 327 332 335 335 334 333 333 332 332 332 331 332 333 334 334 335 334 331 328 326 327 328 328 327 326 324 323 322 325 328 329 330 329 330 329 320 315 314 314 315 312 309 307 303 302 301 301 301 301 301 301 301 301 300 300 300 299 299 299 299 299 299 299 299
343 342 342 341 340 339 337 336 335 334 336 337 336 336 335 333 333 332 333 332 327 328 333 335 335 333 333 333 333 332 331 331 332 332 332 332 334 333 330 329 327 327 328 328 328 326 325 324 321 322 327 328 329 328 328 323 318 320 319 314 314 313 312 310 303 301 301 301 301 301 301 300 300 300 300 300 299 299 299 299 299 299 299 299 298
343 342 342 341 340 339 338 337 336 335 335 335 332 332 331 329 329 330 333 332 328 329 334 334 334 334 334 334 333 332 331 331 331 331 332 333 333 332 330 329 328 328 328 327 327 326 326 326 320 320 324 326 327 327 322 317 318 323 321 318 316 315 314 311 304 301 301 301 301 300 300 300 300 300 300 300 299 299 299 299 300 299 299 299 298
343 342 341 341 339 339 338 338 336 335 333 331 330 329 329 328 329 332 334 332 330 332 334 334 334 334 334 334 333 332 332 331 332 331 332 333 332 331 330 329 329 329 328 326 325 324 325 325 319 318 321 320 323 324 319 317 319 321 322 323 322 320 320 316 309 304 302 303 304 303 301 300 300 301 300 300 299 300 300 299 300 299 299 299 298
343 342 342 341 340 339 339 338 336 334 331 330 329 328 328 329 332 335 335 335 334 333 332 333 335 334 334 334 333 333 332 332 332 332 333 332 332 331 329 329 329 329 329 325 323 323 323 322 316 315 319 318 319 321 319 318 321 322 323 324 324 323 323 322 317 310 306 308 310 309 304 300 301 302 303 302 300 300 300 299 299 299 299 300 299
343 342 342 341 340 339 339 338 335 333 332 330 329 329 329 331 334 336 335 335 335 333 331 332 334 334 334 334 333 333 332 332 332 332 332 332 332 331 329 329 330 328 327 324 322 320 318 317 314 313 317 320 320 320 318 315 319 325 325 324 325 324 322 321 317 312 311 311 312 313 308 303 303 304 306 305 302 301 300 300 300 300 300 300 300
343 342 342 341 340 339 340 338 335 333 332 331 330 330 331 334 335 335 335 335 334 332 331 332 334 335 335 334 333 333 333 332 332 332 332 332 331 330 329 328 328 326 324 322 320 318 315 314 313 313 315 317 318 319 317 313 313 320 325 325 324 322 321 319 315 313 313 312 312 314 311 306 305 306 307 306 304 302 300 301 301 301 301 301 301
342 342 342 341 340 340 340 339 335 333 332 332 331 332 334 335 335 335 335 335 333 331 332 334 335 335 335 334 333 333 333 333 333 333 332 332 330 329 328 326 325 324 323 320 318 316 315 313 312 311 311 313 315 315 312 308 307 312 321 326 322 319 318 317 314 314 313 312 313 313 311 308 306 307 309 307 304 302 301 301 302 302 301 301 300
342 342 342 341 341 341 340 339 336 333 333 333 333 335 335 336 336 336 336 334 332 332 333 335 335 335 335 334 334 333 333 333 333 333 332 331 329 328 326 324 324 323 321 318 315 314 313 312 311 310 309 309 310 309 305 304 304 307 316 321 316 314 316 316 314 314 312 312 313 311 309 307 307 308 309 306 303 302 301 302 302 302 301 301 300
343 342 342 342 342 341 339 338 336 334 334 334 336 337 336 336 336 336 336 334 333 333 335 335 335 335 335 334 334 333 333 333 332 331 330 329 328 327 325 324 323 321 319 316 314 312 311 311 309 307 306 305 305 305 304 303 303 304 310 312 308 308 312 313 312 313 313 311 311 309 308 308 307 308 309 306 303 302 302 302 302 301 301 301 299
342 342 342 343 342 341 339 338 336 335 335 336 337 337 337 337 337 337 337 335 333 333 334 334 334 334 334 334 334 333 332 331 330 329 329 328 327 326 324 323 322 320 318 315 313 312 310 309 307 304 304 303 303 303 303 303 303 303 304 304 303 303 305 307 306 308 310 310 310 309 308 308 308 308 308 304 302 302 301 302 302 301 301 300 299
Wind_Speed
18 16 16 15 15 14 14 15 16 16 15 17 17 16 15 13 13 12 12 12 12 11 11 11 11 11 10 10 10 9 8 8 8 8 9 8 8 8 9 9 10 11 12 12 11 13 15 15 15 14 14 15 14 14 15 17 19 20 20 19 18 17 17 16 16 16 16 16 17 16 15 14 13 12 12 12 12 13 13 13 12 11 11 11 11
22 18 17 16 15 15 14 15 16 16 15 16 17 16 15 14 13 12 12 11 12 12 11 11 11 11 10 9 9 8 8 8 8 9 9 9 9 10 11 11 11 12 12 12 12 12 14 14 15 15 15 16 16 17 20 22 22 21 20 19 18 17 17 16 16 16 16 16 16 17 16 14 13 12 12 12 12 12 12 11 11 10 10 11 11
23 19 17 17 16 15 14 15 16 16 15 16 17 16 15 14 14 12 12 11 12 12 12 11 10 10 9 9 9 8 8 9 9 10 11 10 11 12 12 11 12 12 12 12 11 12 13 14 16 16 17 18 19 21 23 24 23 21 20 19 18 17 16 15 15 14 14 15 14 16 17 15 13 12 12 12 11 11 11 11 10 10 11 11 12
21 20 19 19 17 16 15 15 16 16 15 15 16 15 15 14 14 13 12 12 12 12 12 11 10 10 9 9 9 9 9 9 10 11 12 11 12 13 12 12 12 11 11 10 10 13 15 16 17 17 18 20 21 22 23 23 22 21 19 19 18 17 15 15 14 13 12 12 13 15 16 15 13 12 12 11 11 11 11 11 11 11 12 12 12
20 22 20 20 18 17 16 15 16 16 16 15 15 15 15 14 14 13 12 12 12 13 12 11 10 9 9 8 8 8 8 10 11 12 12 12 12 12 13 12 12 11 10 10 12 15 17 17 18 18 19 20 21 23 23 23 22 20 19 18 17 16 15 15 14 14 12 11 12 13 14 14 13 12 12 12 12 12 11 12 12 12 12 12 12
18 23 22 21 19 17 17 16 16 16 16 16 15 15 15 15 14 13 12 12 12 13 12 11 10 9 8 7 7 7 8 11 12 12 12 12 12 12 13 12 12 11 10 11 14 16 17 19 19 19 20 21 22 22 22 22 21 19 18 17 17 16 15 15 15 15 13 12 10 11 12 12 12 11 12 13 12 12 12 12 12 12 12 11 11
16 21 22 21 20 19 18 17 17 17 16 16 16 15 15 15 14 13 12 12 12 12 12 11 10 9 7 6 5 5 7 10 11 12 11 11 12 12 12 12 11 10 10 13 17 18 19 20 19 19 20 21 21 21 21 20 19 18 17 17 16 15 14 15 16 16 13 11 8 9 10 10 11 12 13 13 13 13 13 13 13 13 12 12 12
16 21 22 21 20 19 18 18 17 17 17 16 16 16 15 15 14 13 13 12 12 12 11 10 9 8 6 5 5 5 6 9 10 10 10 10 10 11 11 11 11 10 11 15 19 20 21 20 20 19 20 20 20 20 20 19 18 18 17 16 15 14 14 14 15 15 12 8 6 7 8 8 10 13 13 13 13 13 13 13 14 14 14 14 13
17 20 21 21 20 19 19 18 18 17 17 16 16 16 15 15 14 13 13 12 12 11 11 9 8 7 6 4 4 4 6 8 9 9 9 9 9 9 10 10 11 10 11 16 20 21 22 21 20 19 19 19 19 19 19 18 18 17 16 15 14 14 14 13 12 12 11 8 5 4 5 7 9 12 14 13 13 13 13 14 14 15 14 14 13
17 20 21 20 20 19 19 18 18 18 17 17 16 16 15 15 14 13 13 12 12 11 10 9 7 6 5 4 4 5 7 8 8 8 8 8 9 9 9 10 11 11 13 17 21 22 22 21 20 19 19 19 19 18 18 17 17 16 16 16 15 15 15 13 11 11 11 9 3 2 4 7 8 11 14 15 14 13 14 15 15 15 14 14 13
17 20 21 20 20 19 18 18 18 17 17 17 16 16 15 14 14 13 13 12 12 11 9 8 7 6 4 4 4 5 6 7 7 8 8 8 9 9 9 10 11 12 15 19 20 21 21 20 19 19 18 18 18 17 17 16 16 15 15 15 14 14 14 12 10 9 8 7 2 3 3 6 8 10 14 15 14 14 15 15 15 15 14 14 13
15 20 22 20 20 19 19 18 18 17 17 17 16 15 15 14 14 14 14 13 11 10 9 7 6 5 4 4 4 4 5 6 7 7 7 8 8 9 9 9 11 13 17 19 20 20 20 19 19 18 17 17 16 16 15 15 14 14 14 14 14 14 13 11 10 9 7 7 3 3 4 6 9 11 13 14 13 14 14 15 15 14 14 14 13
16 21 22 20 21 20 19 18 18 17 16 17 17 15 15 15 14 14 14 13 11 10 8 7 5 5 4 4 2 2 4 5 6 7 7 7 8 9 9 10 12 14 17 19 19 19 18 18 18 17 16 16 15 14 14 13 13 13 13 14 15 13 11 8 5 5 5 7 5 2 3 6 9 10 12 13 13 13 14 14 14 14 14 13 13
16 19 19 20 22 21 20 19 18 16 16 17 17 16 15 14 14 14 13 12 11 9 8 6 5 4 3 2 1 2 4 6 6 7 7 7 8 9 9 10 12 15 17 18 18 18 17 17 16 16 15 14 14 13 12 12 12 12 14 15 13 10 7 6 5 4 3 6 3 1 3 6 8 9 11 12 12 12 13 13 13 13 12 12 13
13 16 16 19 23 23 21 19 18 16 16 17 17 16 15 14 14 14 13 12 11 9 8 6 5 3 2 1 1 3 5 6 7 7 7 7 8 8 9 10 12 14 17 18 18 17 16 16 15 14 14 13 12 12 11 10 10 12 14 14 11 7 7 8 8 6 4 3 1 2 4 6 7 9 11 11 11 11 12 12 12 11 12 12 13
11 13 15 19 23 24 22 19 17 16 16 17 18 17 15 14 14 14 13 12 11 9 7 6 4 3 2 1 2 4 5 6 7 7 7 7 8 8 9 10 12 13 16 17 17 16 15 15 14 13 12 12 11 10 9 9 10 11 12 13 9 6 5 6 4 3 2 1 2 3 5 7 8 10 11 10 11 11 11 11 11 11 11 12 13
13 11 12 17 23 24 22 20 17 16 17 17 18 17 15 14 14 14 13 12 10 9 7 5 4 3 2 2 4 5 5 6 7 7 7 8 8 8 9 10 12 13 15 16 17 16 15 14 13 12 11 10 9 9 8 8 9 9 10 11 7 4 4 3 1 0 2 4 5 5 6 7 9 10 11 11 11 11 11 11 10 11 12 12 12
13 11 11 15 21 24 22 20 18 17 18 19 19 17 16 15 15 14 13 11 10 8 7 6 4 3 3 4 5 5 6 6 7 7 7 8 8 8 9 10 12 13 14 15 15 15 14 13 12 10 9 8 8 8 7 7 8 8 8 9 6 4 4 2 2 0 2 5 7 6 6 7 9 10 10 10 10 10 10 10 11 11 12 11 12
13 11 11 15 21 23 22 20 19 18 19 19 19 17 16 15 15 14 13 11 9 8 7 6 4 4 5 6 6 6 7 7 8 8 8 8 8 8 9 9 10 12 13 14 14 14 13 12 11 9 8 8 8 7 7 7 7 7 8 10 7 3 3 4 4 0 3 6 7 6 7 8 9 10 10 10 10 10 10 10 10 11 11 11 11
12 11 12 16 22 23 22 21 19 19 19 19 18 17 16 15 14 13 12 10 9 7 7 6 5 5 6 8 8 8 8 9 9 8 8 8 8 8 9 10 10 10 11 12 12 12 12 11 11 9 9 8 7 8 9 9 9 9 9 10 7 3 2 5 3 2 5 7 8 6 7 8 9 9 9 10 9 9 9 10 10 10 10 10 11
11 10 12 16 22 23 22 21 20 20 19 18 18 17 16 15 14 13 11 10 8 7 7 6 6 7 8 9 9 10 10 9 9 9 8 8 9 9 9 10 10 10 10 10 11 11 11 10 10 9 8 7 8 11 11 12 10 9 9 8 6 3 3 4 4 5 7 8 7 6 7 8 9 9 9 9 9 9 9 9 10 10 10 10 10
13 12 12 14 18 20 21 21 21 20 19 19 18 17 16 15 14 12 11 9 8 7 7 7 7 9 9 11 11 11 11 10 8 9 9 7 8 9 9 10 10 11 10 10 10 9 10 9 9 9 8 8 10 12 11 11 9 7 7 5 4 3 3 3 5 6 8 8 6 6 7 7 8 8 7 7 8 9 9 9 9 9 9 10 10
16 15 17 16 14 15 17 21 21 21 20 19 17 16 15 15 13 12 11 9 8 8 8 8 8 9 10 12 12 10 11 10 8 9 9 7 7 8 9 10 11 11 12 12 11 11 11 10 10 11 10 10 11 9 8 7 6 6 4 3 3 3 4 4 6 7 8 7 6 6 6 7 7 6 6 6 7 8 8 9 9 9 9 10 10
19 18 21 19 14 12 13 18 20 21 20 19 18 16 16 15 13 12 11 10 9 9 9 9 10 10 10 11 11 10 10 9 7 7 7 6 6 7 8 9 11 12 12 13 14 13 14 13 13 12 10 9 9 7 6 5 6 4 0 2 3 4 4 5 7 7 7 7 6 6 6 7 7 4 4 4 5 6 7 8 8 8 9 9 9
22 20 23 21 17 13 10 14 19 21 20 19 18 17 16 15 14 13 12 10 10 11 10 11 12 12 11 10 9 8 9 7 5 4 5 5 5 7 8 9 11 12 13 14 15 15 14 13 12 9 7 6 4 5 5 4 5 2 3 3 5 4 3 5 6 6 5 5 5 6 7 8 6 3 2 2 3 5 6 7 7 8 9 8 9
25 23 25 22 20 16 10 14 20 21 19 18 18 17 16 14 14 13 12 11 10 11 13 14 14 14 12 9 7 7 6 5 3 3 3 5 5 6 7 8 9 10 12 12 13 15 13 11 9 8 6 4 2 3 5 3 2 2 4 4 5 2 3 5 6 5 4 5 5 6 6 6 5 4 3 3 3 4 5 6 7 9 10 11 13
28 25 24 23 21 17 12 15 21 21 18 18 18 17 16 14 13 13 11 11 10 11 14 15 13 12 11 8 7 7 7 6 5 5 4 5 6 6 7 7 8 8 10 10 9 10 10 8 6 6 5 4 3 2 2 2 2 2 2 2 3 1 4 5 5 5 5 6 6 6 4 3 4 5 5 4 4 5 6 8 9 11 13 14 15
29 27 24 24 20 18 15 17 21 21 19 17 17 18 16 13 13 13 11 10 10 11 11 12 10 9 9 7 7 7 7 7 6 5 5 6 6 6 7 7 7 7 7 8 6 6 6 5 4 4 4 2 3 3 3 3 2 3 2 2 2 2 3 3 4 5 6 7 6 6 4 4 5 5 6 5 6 7 8 9 10 11 13 15 15
28 26 24 23 19 19 18 18 21 21 19 17 17 18 16 15 14 13 12 10 10 9 8 10 11 10 10 9 9 8 7 7 6 5 5 5 6 6 7 6 6 6 6 5 5 4 4 4 5 5 3 3 5 6 5 3 3 5 5 4 4 3 1 1 3 5 6 8 7 6 5 4 5 6 6 7 7 7 8 9 10 11 12 14 14
27 25 23 21 19 21 20 20 23 21 19 18 18 18 16 15 14 14 12 9 9 8 8 10 11 11 11 10 8 7 8 7 6 6 5 5 7 7 7 7 6 6 6 5 5 5 5 6 7 6 4 6 7 7 6 4 4 7 6 5 4 3 1 2 0 4 7 8 8 6 5 6 6 6 7 8 8 8 9 9 10 11 11 13 14
27 24 24 21 20 22 22 23 24 21 20 19 19 18 16 14 14 15 13 11 10 11 12 12 11 12 11 10 9 8 8 8 7 6 5 6 8 9 8 8 7 7 6 6 7 7 7 7 7 7 6 8 8 8 9 9 9 9 9 7 6 4 2 3 3 5 7 8 9 8 7 8 7 7 7 8 8 9 9 10 10 11 11 12 14
25 24 25 22 20 22 24 25 25 22 21 20 19 18 17 15 15 16 15 15 15 14 14 14 14 13 10 10 10 8 8 8 7 7 7 8 9 9 9 9 8 6 6 6 8 8 8 7 7 9 10 10 9 9 10 11 12 11 11 10 9 9 8 7 7 8 8 9 9 10 10 9 8 8 8 8 8 9 9 10 10 11 11 12 13
25 24 25 24 20 22 25 26 26 24 23 22 20 19 18 17 17 16 15 17 17 15 15 16 15 14 11 11 11 9 9 8 7 8 9 10 10 9 10 10 9 8 7 8 9 8 8 7 7 8 10 10 10 10 10 12 13 11 10 9 9 8 9 10 10 10 9 9 9 11 12 11 9 9 9 8 9 10 10 10 10 11 11 11 12
26 25 26 24 20 22 26 27 27 25 24 23 21 21 20 18 18 17 15 17 17 14 15 15 15 15 12 10 10 9 9 9 9 10 10 12 11 11 12 11 11 11 9 9 10 10 10 10 8 8 9 9 11 12 12 12 13 11 10 9 8 7 8 9 10 10 10 9 10 12 13 12 11 9 8 8 9 9 9 9 10 10 10 11 12
26 26 26 24 20 22 27 28 27 26 25 23 21 21 21 19 19 17 16 16 15 15 16 15 14 14 12 10 8 8 9 9 10 11 12 13 11 10 11 9 10 11 10 10 11 10 11 12 10 10 10 10 12 13 12 13 13 12 11 10 10 9 8 8 9 10 10 9 8 9 10 10 10 9 8 8 7 7 8 8 8 9 9 10 11
26 25 26 24 21 23 28 29 28 27 26 23 21 21 20 20 20 18 17 16 16 18 19 17 15 13 12 10 9 8 10 10 10 11 11 13 13 12 11 10 11 12 12 12 11 10 11 12 12 12 13 12 12 13 12 12 12 12 12 11 11 10 9 8 6 6 6 6 5 5 5 4 5 7 8 8 7 7 7 8 8 9 10 11 11
27 26 27 26 23 23 27 30 30 29 28 25 23 22 21 21 21 19 17 18 20 20 19 18 16 13 13 12 11 11 12 12 12 12 12 12 13 13 12 13 12 12 13 13 11 10 11 12 13 14 14 14 13 13 12 12 12 12 11 11 9 7 6 5 4 3 2 2 1 1 2 2 2 4 5 6 7 7 7 8 8 9 11 11 12
29 28 28 27 24 23 26 31 31 30 30 28 26 24 23 22 21 20 20 21 22 21 19 18 16 13 14 13 12 13 13 14 14 15 14 13 13 13 13 14 13 13 15 14 12 11 10 9 13 16 15 14 15 13 13 13 11 10 10 7 6 5 3 2 1 1 1 1 1 1 1 2 3 3 3 4 6 7 8 9 10 11 13 13 13
31 30 29 27 25 23 26 31 31 30 32 30 28 26 24 23 23 22 22 22 22 21 20 18 16 14 14 14 13 13 14 14 15 16 16 16 15 14 14 14 14 17 18 16 14 13 11 9 13 19 16 14 15 12 12 12 9 7 6 5 4 3 1 1 2 2 2 2 2 1 1 2 3 2 2 3 5 7 8 10 11 13 15 15 15
32 32 31 28 27 26 27 32 32 31 33 32 29 28 26 25 25 24 23 23 22 22 20 19 18 16 15 14 13 13 15 15 15 16 16 16 16 14 13 13 14 18 19 17 15 13 10 8 14 20 19 16 14 12 12 11 8 5 5 6 5 4 2 2 3 2 2 2 3 3 3 2 2 1 1 4 6 7 8 10 11 13 13 13 13
33 33 33 30 30 29 29 32 33 32 34 34 30 29 29 28 27 25 24 22 22 23 21 20 18 17 15 14 14 15 16 16 15 16 16 15 15 14 13 12 13 16 17 16 15 12 9 8 13 20 20 17 14 12 12 11 7 6 7 8 7 5 3 2 2 2 2 3 3 3 3 3 2 1 2 5 8 8 8 10 11 11 11 12 13
36 35 34 32 32 31 29 31 33 34 35 35 31 30 29 28 27 25 24 22 24 23 21 20 18 16 15 14 15 16 17 18 17 17 17 16 15 14 12 12 13 13 14 14 14 13 11 9 13 19 19 16 14 13 11 10 8 6 6 7 8 6 3 2 2 3 3 3 4 4 4 3 2 2 4 8 9 9 8 8 9 11 12 14 17
39 37 35 33 33 32 29 30 33 35 36 34 31 30 29 27 25 24 23 23 24 22 20 19 17 16 16 16 16 18 18 19 19 18 18 17 16 14 13 13 13 13 13 13 15 15 14 12 15 19 18 16 14 11 10 11 10 8 6 6 6 5 3 3 3 3 3 4 5 5 5 4 3 3 6 10 11 12 9 7 10 13 16 19 20
40 38 36 35 34 33 30 30 34 35 35 34 30 29 28 26 25 22 22 23 23 23 21 18 16 17 18 17 17 19 19 19 20 20 19 18 17 15 14 14 13 13 13 13 15 16 16 15 17 19 18 16 15 12 12 13 11 8 8 6 4 4 4 5 5 4 4 4 5 6 7 6 7 7 9 11 11 13 11 10 13 16 18 21 22
41 39 38 37 35 34 31 31 35 36 35 33 31 30 29 28 26 24 24 24 23 24 23 20 18 19 19 18 19 20 20 20 20 20 19 19 18 16 15 15 14 14 14 14 16 16 17 17 19 20 19 17 15 13 13 12 10 8 7 6 4 5 5 6 6 6 5 3 2 5 7 8 10 12 14 14 11 11 12 13 16 19 20 22 22
42 41 39 37 37 35 32 32 36 37 35 34 33 32 30 29 29 29 29 28 27 26 25 22 21 21 20 20 22 22 22 22 22 21 20 20 19 17 16 15 15 15 15 16 17 17 18 18 18 19 19 17 13 12 11 11 11 11 10 8 6 5 4 6 7 6 5 2 1 2 4 5 8 11 14 15 12 9 11 15 18 21 22 22 21
41 41 39 38 37 34 33 34 37 38 36 35 34 32 30 30 31 31 31 30 29 26 24 22 22 21 21 22 23 23 22 23 22 21 20 19 18 17 15 15 16 16 15 15 16 17 17 17 17 16 17 17 14 12 12 12 12 13 13 11 9 6 4 6 7 5 4 3 2 1 2 4 6 7 8 13 13 9 12 17 18 20 21 19 19
40 41 40 39 37 35 34 35 37 38 37 36 34 32 32 32 32 31 30 29 27 25 24 22 22 23 24 24 24 24 23 23 21 20 19 18 16 16 15 15 16 16 14 14 15 15 14 14 14 15 16 16 15 13 13 13 13 14 15 13 10 8 6 8 7 4 3 2 2 2 2 2 5 6 5 10 12 10 14 17 17 18 17 16 19
40 42 41 39 37 35 36 37 38 38 38 36 34 33 33 33 32 31 30 28 26 25 25 23 23 24 26 25 24 24 24 23 21 20 19 17 16 16 16 16 16 15 14 15 14 13 12 12 12 13 14 14 14 13 13 13 12 13 15 13 11 10 10 10 8 7 5 3 2 2 1 2 5 6 4 7 10 11 14 15 15 14 12 14 19
42 43 42 40 37 37 38 38 39 39 38 36 34 33 33 33 32 32 31 29 28 28 27 26 26 26 26 26 26 25 24 23 22 21 20 18 17 17 17 16 16 15 15 15 14 13 13 12 11 12 12 12 12 11 11 11 11 12 13 13 12 12 13 13 11 11 10 7 3 2 1 3 6 5 2 4 9 10 12 13 12 10 9 15 16
43 44 43 41 38 39 39 39 39 39 38 37 35 34 33 33 32 32 32 31 31 30 30 29 28 28 27 26 25 24 23 22 22 21 20 18 17 17 16 16 15 15 15 14 13 13 13 12 12 12 12 12 11 10 10 10 10 10 11 12 12 11 12 12 12 13 12 10 7 5 2 1 4 4 0 3 8 10 9 10 8 6 10 14 13
Wind_Direction
171 175 172 172 167 164 162 150 143 142 142 135 129 129 126 124 119 114 113 111 107 103 100 97 95 89 84 80 75 72 67 62 56 49 46 51 61 71 83 95 101 103 103 105 105 105 113 115 115 111 103 103 106 115 121 122 121 120 120 117 113 109 105 102 98 93 88 83 78 69 58 53 52 53 52 48 44 41 40 40 41 39 34 33 32
166 171 177 173 171 168 164 155 145 142 143 135 130 129 127 125 120 117 116 114 111 108 103 97 94 88 83 78 72 65 60 61 52 43 40 47 68 84 91 98 104 103 102 103 106 111 116 114 112 108 102 104 105 111 116 120 122 122 121 117 113 109 105 101 96 91 85 80 76 70 57 47 45 44 44 42 38 35 33 33 34 32 30 28 24
168 170 179 176 173 169 167 159 147 144 144 136 131 130 129 125 122 122 119 118 115 110 106 100 93 85 79 73 67 62 59 57 48 41 41 51 78 92 95 99 103 103 104 103 105 116 123 116 108 104 104 107 108 112 116 120 122 122 119 116 113 109 105 99 94 91 85 76 71 68 57 43 39 38 35 35 31 28 26 26 27 26 25 24 20
180 175 178 178 174 170 170 162 151 146 145 137 132 130 129 126 124 125 124 122 118 112 108 103 95 85 78 71 65 58 50 49 51 50 47 58 83 92 94 100 102 103 104 102 105 116 123 117 109 107 107 110 111 115 117 119 120 120 118 116 113 108 102 96 90 86 81 75 68 62 55 42 34 36 32 29 27 23 24 22 21 21 21 18 15
187 180 179 178 174 171 171 165 155 149 146 139 134 132 128 127 126 127 128 126 119 114 111 106 98 89 83 74 63 45 41 55 61 59 54 62 80 89 94 100 102 103 101 100 105 113 118 115 112 111 111 112 114 117 118 119 119 119 119 115 112 107 101 94 85 77 70 67 61 49 47 37 25 33 33 28 26 23 22 18 15 14 13 10 5
188 182 179 178 175 170 171 167 158 151 147 142 137 134 131 130 129 130 131 128 121 117 114 109 104 97 92 79 58 38 49 64 60 58 58 65 78 88 95 100 102 102 102 103 107 112 116 116 115 115 114 114 116 118 118 118 118 119 117 114 111 106 100 92 84 77 66 55 47 36 39 29 13 24 32 27 23 18 14 10 7 5 3 1 357
190 185 181 179 176 171 171 168 160 154 149 145 140 136 135 134 134 134 133 129 123 119 116 113 110 106 101 85 59 42 51 55 50 53 58 68 81 90 97 101 104 103 106 109 112 116 118 118 118 117 117 117 117 118 118 118 118 117 115 112 108 102 95 92 89 83 71 58 45 35 36 23 11 20 26 23 19 12 6 3 1 359 358 358 358
189 188 184 179 176 173 170 168 164 157 152 148 142 138 138 137 137 135 133 129 124 121 120 120 116 113 105 90 64 51 47 42 42 50 58 70 82 92 101 104 108 109 111 115 117 120 122 122 121 119 119 119 119 118 118 118 117 116 114 111 105 99 95 96 97 93 82 67 48 41 36 19 13 18 20 17 12 7 3 2 2 1 1 1 1
191 190 185 181 178 175 170 169 166 160 156 150 144 141 140 139 139 136 133 129 127 126 125 125 123 119 108 89 69 60 50 39 41 51 64 77 85 95 104 107 110 111 116 121 123 124 125 124 123 122 121 120 119 119 119 119 119 118 115 110 102 99 99 95 95 91 80 64 36 26 17 357 4 12 13 10 6 5 5 6 7 5 3 1 1
193 189 185 182 178 177 172 170 168 164 159 152 148 144 142 140 139 136 133 131 130 130 130 131 129 122 111 93 80 67 51 44 49 61 74 84 91 99 106 111 114 114 119 124 126 127 127 127 125 123 122 121 120 120 120 121 121 119 115 109 102 100 99 95 90 82 71 68 41 334 346 346 354 3 6 5 3 5 6 8 8 6 4 1 0
192 185 183 181 178 178 174 172 169 168 162 154 152 148 144 142 139 138 134 135 135 134 137 137 133 124 115 98 82 64 54 54 62 69 79 89 96 104 110 119 120 118 123 128 130 130 130 129 127 125 124 123 122 123 123 124 123 122 117 109 104 102 101 98 94 83 74 94 86 317 336 352 350 351 358 1 1 4 4 6 6 4 3 1 357
186 178 180 180 178 177 175 174 170 170 165 156 154 151 148 144 141 140 139 140 140 140 143 142 135 123 112 100 76 57 61 68 73 75 85 95 99 107 113 123 126 126 130 133 135 134 132 131 129 127 127 126 126 127 127 127 125 122 117 110 107 104 104 101 104 101 95 144 186 326 332 338 340 342 353 357 359 2 1 2 2 2 1 358 353
172 170 178 179 177 177 177 175 173 172 165 159 157 155 151 148 145 144 145 145 146 147 147 144 133 122 107 90 68 66 83 85 81 83 90 97 103 110 116 126 131 133 137 139 138 137 135 132 130 130 130 130 130 130 129 128 125 120 116 112 110 105 102 92 104 113 101 155 187 301 308 322 337 341 349 354 357 358 358 359 358 358 357 354 349
163 165 173 176 178 176 177 177 175 173 165 162 159 157 155 152 150 149 149 149 151 151 148 144 134 127 110 77 64 99 108 102 90 90 92 98 103 110 118 128 135 137 141 143 142 141 139 136 133 133 133 133 132 132 130 128 124 118 115 114 111 102 84 54 53 75 99 141 162 285 305 327 338 344 348 352 354 354 354 355 355 353 351 348 346
171 167 172 175 179 176 177 179 177 172 165 164 162 160 159 156 153 152 153 153 154 153 148 143 137 129 117 84 112 118 117 110 98 94 95 99 102 111 120 128 136 141 146 147 146 145 143 140 136 135 135 134 134 133 132 129 125 120 118 116 111 94 68 55 62 76 98 128 107 313 321 334 335 341 345 346 348 347 346 348 349 347 344 346 345
183 166 172 177 179 178 177 178 176 169 165 164 163 162 161 159 157 156 155 157 157 154 148 144 146 138 124 119 129 125 119 111 103 100 99 102 102 109 120 128 136 142 149 151 150 149 147 144 140 137 135 135 134 133 132 129 126 123 123 120 112 91 69 69 81 79 64 21 335 307 315 329 328 331 336 338 338 337 338 339 341 341 342 343 342
188 174 177 180 180 180 178 176 173 167 166 165 163 163 163 161 159 158 157 161 159 154 153 150 153 144 138 135 130 123 117 111 108 108 106 107 104 107 119 129 137 144 151 153 154 153 151 149 145 141 137 137 135 131 131 127 123 119 121 125 120 111 101 94 147 313 2 341 325 316 323 328 323 326 330 331 331 332 333 334 337 338 340 341 340
189 192 193 189 183 181 179 174 171 168 168 165 163 163 163 163 162 161 160 162 158 154 160 160 157 151 147 134 129 125 118 111 110 112 107 107 105 105 113 126 138 145 151 155 157 156 155 153 149 145 142 137 132 128 123 116 113 108 117 131 135 141 142 178 211 122 356 326 310 307 322 328 326 327 328 328 330 332 332 333 336 337 338 339 338
186 195 196 193 186 182 179 173 170 169 169 165 162 162 162 166 165 162 161 161 158 157 163 161 157 154 146 135 130 125 117 112 108 108 106 103 104 105 108 118 136 146 152 157 159 159 157 155 150 147 143 136 127 118 110 105 107 106 123 139 146 150 162 211 210 189 327 314 303 301 316 327 331 330 328 329 331 332 334 336 338 340 344 345 345
178 185 181 185 186 184 178 172 169 166 167 164 161 163 163 166 166 162 160 162 160 159 164 162 156 153 144 134 129 122 116 110 105 105 106 106 105 106 106 110 124 140 152 157 159 161 158 155 151 148 143 136 122 109 102 101 104 111 129 146 157 165 213 244 252 308 317 314 308 306 317 326 331 330 328 329 334 339 344 347 349 352 358 360 357
165 166 168 173 180 184 177 170 168 165 164 162 162 163 165 168 165 161 160 165 162 159 164 159 152 150 142 134 128 123 115 105 103 102 102 106 109 109 110 109 113 125 141 152 158 159 156 154 149 149 146 139 123 111 101 99 104 116 131 148 164 186 235 271 307 324 323 320 311 305 315 325 330 327 329 339 351 358 359 0 3 3 5 5 1
159 153 160 161 168 179 176 170 167 164 164 161 162 163 167 167 163 161 161 167 165 160 161 155 152 147 142 136 130 124 115 105 104 101 96 99 107 113 115 114 111 113 121 133 145 149 150 148 146 147 142 139 129 113 101 101 106 118 132 156 178 220 250 287 321 325 321 318 309 302 310 322 325 330 346 3 11 9 6 6 10 7 3 0 358
162 155 163 158 154 167 174 177 170 165 165 162 165 167 168 165 163 163 160 167 165 160 158 151 149 146 144 142 140 136 119 110 112 103 94 92 100 110 115 116 114 113 114 118 125 132 135 137 139 136 125 125 131 121 105 112 123 120 134 190 209 248 280 308 320 317 308 306 307 302 304 312 319 346 14 18 18 16 12 7 7 6 1 357 356
165 159 170 168 160 162 169 181 176 168 167 166 170 170 168 166 165 163 160 164 160 158 159 150 146 146 147 150 156 153 122 108 117 109 96 96 98 102 109 117 117 113 114 117 118 120 124 126 126 124 118 115 126 127 113 136 151 131 159 248 242 263 307 326 324 315 304 301 303 298 298 303 307 344 16 14 21 19 10 3 4 3 1 358 354
169 167 178 179 175 178 175 184 182 172 171 170 172 173 171 170 166 162 160 162 160 158 157 150 147 144 143 147 151 141 120 111 121 115 105 115 114 108 111 120 122 117 117 119 120 121 123 124 119 118 119 116 126 134 135 166 159 152 274 273 271 280 343 341 329 317 309 310 306 302 297 295 294 304 328 347 11 6 6 5 4 357 349 342 337
176 175 181 186 183 187 196 190 184 176 174 171 171 175 174 172 164 161 162 164 163 160 159 154 148 144 142 142 132 125 131 140 149 161 153 138 133 130 127 127 129 127 127 129 130 131 133 134 132 129 123 123 118 115 142 177 157 198 260 272 271 284 36 359 350 338 325 329 325 317 304 292 292 301 308 318 332 339 350 345 340 336 328 325 324
181 182 182 188 185 188 200 188 181 179 176 172 174 178 177 172 162 160 165 165 163 166 166 153 146 148 145 144 141 142 159 169 177 186 177 153 142 143 146 143 139 139 140 147 147 138 141 150 151 136 118 115 97 83 165 178 147 180 258 254 237 122 50 2 359 355 329 327 330 329 327 316 310 315 319 328 334 334 333 326 328 326 320 322 323
180 184 182 187 187 189 194 184 183 181 176 175 178 179 178 171 162 163 163 161 162 161 159 150 153 165 157 166 171 165 172 181 185 186 181 165 159 157 160 162 157 151 149 156 155 134 136 151 156 132 112 116 131 164 184 179 156 120 100 150 165 117 74 6 357 356 331 320 325 336 343 331 319 322 324 330 334 332 329 325 326 323 319 322 326
181 184 184 189 191 191 188 184 187 183 178 180 180 179 178 170 163 165 162 163 160 146 152 162 168 175 174 186 186 175 180 188 193 193 188 179 181 173 169 174 161 151 151 157 157 139 143 167 181 171 163 184 182 179 172 194 190 118 116 138 132 141 132 42 359 342 323 315 322 337 343 335 334 338 337 336 336 337 335 332 331 330 329 330 334
187 188 189 190 196 197 188 184 189 186 184 186 181 178 179 173 164 164 165 165 162 160 176 173 168 176 185 195 191 184 185 192 203 202 193 187 189 181 174 173 158 151 156 157 154 158 177 181 179 185 189 185 179 169 154 160 154 125 131 140 130 143 118 99 3 297 296 305 314 325 345 356 358 356 350 348 351 354 351 348 346 344 343 341 343
192 193 191 189 197 200 191 185 187 189 190 188 182 179 180 174 166 165 165 167 177 188 185 175 179 183 186 195 194 193 190 194 204 202 199 188 183 185 181 172 163 160 159 154 151 161 176 170 161 165 166 159 149 138 133 136 140 142 154 160 168 192 213 194 211 257 277 292 304 320 344 357 1 10 5 359 2 4 359 356 354 351 352 351 350
194 198 194 189 195 197 191 185 185 190 191 187 185 183 182 175 173 171 166 176 189 197 187 180 186 183 187 197 194 195 192 192 197 195 197 187 179 186 184 171 161 161 165 162 161 166 170 164 158 156 152 141 131 135 144 152 158 168 182 189 201 215 231 239 242 253 268 283 299 318 336 348 358 16 18 10 5 6 3 359 358 358 357 356 356
196 202 196 190 195 195 189 184 184 190 189 187 188 189 186 176 179 180 172 183 194 196 187 184 188 185 194 201 195 197 194 192 197 197 193 186 184 182 177 170 164 172 181 171 168 175 170 161 157 155 152 144 142 155 164 169 173 185 200 213 220 214 218 232 247 259 272 288 305 319 327 339 354 12 19 15 6 4 4 0 1 2 359 359 1
194 198 194 191 195 193 188 183 185 189 188 188 190 190 190 180 179 181 178 189 196 190 182 188 195 190 196 202 196 198 197 192 192 197 194 186 185 179 174 172 170 175 184 179 176 181 173 165 158 146 147 158 170 179 184 186 188 197 208 221 230 221 209 214 229 248 268 288 306 316 321 330 343 0 16 16 7 2 1 1 2 2 3 4 6
193 197 195 191 192 191 188 184 184 187 186 187 189 189 191 183 178 181 183 190 191 182 181 194 201 193 194 198 194 196 200 196 190 193 190 179 180 181 178 180 179 175 179 188 189 188 182 178 169 152 157 175 183 188 195 200 202 212 219 222 229 234 233 224 222 231 244 264 284 296 307 322 334 348 4 10 8 3 3 6 3 4 12 16 16
199 202 197 191 189 189 187 184 183 186 184 184 188 190 190 183 180 184 186 189 186 182 187 198 201 193 190 190 188 192 198 196 192 191 181 171 175 180 180 185 187 179 181 191 194 194 192 188 177 164 175 188 190 197 204 211 217 224 230 232 233 237 245 248 240 230 225 232 249 266 290 316 332 345 356 359 2 7 10 14 14 16 23 28 29
205 206 199 191 187 185 187 185 183 185 183 183 190 193 188 181 182 185 187 192 188 186 194 198 199 195 189 186 183 189 195 190 186 187 177 168 168 168 173 180 182 177 179 188 194 199 195 190 183 175 184 193 196 208 213 220 230 238 246 248 245 241 241 249 255 260 252 211 216 256 296 324 346 355 357 356 3 10 15 21 25 28 30 33 37
204 206 200 192 188 186 188 187 184 186 185 184 191 193 188 182 181 184 190 196 190 189 198 199 199 198 192 189 185 187 192 186 182 181 176 170 163 163 177 184 179 174 179 185 192 207 211 199 188 184 191 198 199 211 219 226 238 249 254 249 243 244 234 233 258 293 325 40 39 337 336 4 11 6 5 11 18 19 22 27 27 29 31 29 32
201 203 200 194 194 190 188 189 187 189 189 188 192 192 189 183 180 186 194 198 195 194 201 203 201 198 193 191 187 187 188 186 183 178 176 176 172 176 189 188 178 179 186 190 191 206 220 216 196 188 193 201 202 211 223 230 243 247 236 215 208 218 200 87 54 47 33 23 20 35 37 24 11 5 26 39 41 36 35 37 34 32 32 28 26
197 200 200 197 198 193 189 191 191 190 190 191 193 191 188 181 181 189 197 200 199 197 203 208 205 198 194 190 188 188 188 190 187 180 181 181 178 187 194 185 179 186 191 196 198 203 206 207 201 193 193 203 207 214 224 232 240 218 187 180 181 170 127 76 68 77 67 28 19 32 46 48 22 351 85 68 58 50 46 47 44 39 37 34 30
194 198 199 198 199 196 190 192 194 191 190 192 193 191 188 183 184 193 200 202 200 199 202 208 206 200 198 192 191 191 190 194 191 188 192 191 187 192 197 192 189 193 195 201 210 201 179 185 203 197 195 205 208 210 222 231 225 188 168 176 173 154 132 106 98 95 80 53 36 29 32 42 30 19 71 63 57 54 52 52 51 48 43 39 34
194 198 200 199 197 197 195 194 194 193 193 195 193 191 190 189 192 197 201 202 200 200 204 207 204 201 200 195 195 196 195 196 195 195 201 203 199 197 201 204 202 203 202 207 217 209 187 187 204 201 197 205 210 211 222 224 201 163 150 170 171 157 143 159 132 104 89 69 60 47 33 22 18 56 61 54 46 42 44 50 54 52 43 37 31
195 198 201 199 196 196 199 196 194 195 195 196 196 193 193 196 199 200 201 201 199 200 204 205 201 198 200 198 197 201 201 201 199 202 206 207 208 206 208 213 216 219 217 215 216 212 203 196 203 207 203 202 207 212 213 209 195 168 151 165 176 177 185 189 163 129 116 94 72 57 43 20 8 41 54 50 40 31 29 37 48 48 39 32 26
195 199 199 198 198 197 200 198 195 196 196 196 197 196 195 197 199 200 200 202 201 198 198 201 198 197 199 197 198 202 204 205 204 205 207 209 214 215 218 223 226 229 232 224 211 207 208 203 201 206 209 206 204 201 194 200 209 193 166 163 184 201 211 201 186 177 160 120 81 59 47 38 33 37 44 46 38 29 28 35 42 43 37 27 19
196 199 198 199 201 199 201 200 196 197 197 196 197 198 198 196 194 193 194 196 198 196 195 195 196 199 198 195 197 200 203 206 208 208 209 213 219 222 225 229 233 239 237 220 203 200 205 204 201 202 208 213 212 204 196 198 210 209 183 173 191 209 217 211 202 203 201 176 90 55 41 42 43 39 36 36 34 27 30 39 39 37 33 23 11
197 200 199 201 202 200 202 202 198 197 197 197 198 198 199 198 195 192 192 193 194 196 195 195 196 198 198 196 196 197 202 207 210 212 213 217 223 227 232 237 242 242 228 208 199 197 198 200 202 200 202 212 220 219 215 205 201 207 204 198 213 227 216 201 196 205 221 240 33 53 36 34 32 28 24 24 25 19 24 36 35 30 28 18 5
197 200 201 201 201 201 204 201 198 198 197 197 199 199 200 201 199 198 198 198 198 197 196 197 197 196 196 197 198 198 204 210 213 216 218 223 229 232 237 243 241 231 213 202 201 201 200 200 204 201 199 207 217 223 227 221 209 211 210 209 225 245 235 210 207 212 219 239 272 294 0 18 14 10 7 11 15 10 19 31 29 23 22 14 357
196 198 200 200 200 203 203 201 199 198 197 199 199 200 202 202 200 201 202 202 202 200 195 195 195 194 197 201 202 203 207 213 218 222 224 226 230 233 232 229 223 214 203 202 206 208 207 206 207 208 207 210 214 218 221 219 213 211 211 214 228 236 223 217 225 230 221 228 222 235 312 2 8 359 351 3 6 8 22 30 25 20 21 7 349
196 198 199 199 200 202 201 201 200 198 198 200 200 201 203 203 202 202 201 200 202 200 194 192 192 195 200 203 206 209 212 215 219 224 227 228 228 228 223 215 208 203 200 202 207 212 216 215 213 214 216 218 219 219 216 213 209 206 207 212 218 218 208 207 217 218 224 247 198 172 304 351 5 352 336 0 10 18 30 33 25 22 19 352 340
196 198 198 198 199 199 200 202 201 199 199 201 201 202 204 205 204 203 201 200 200 198 194 193 194 198 203 205 208 212 216 217 218 221 226 228 228 224 219 212 204 202 204 204 206 213 220 222 220 217 218 220 220 220 217 214 213 210 210 212 214 213 208 209 215 218 224 235 220 178 324 334 355 353 317 7 25 31 36 37 31 23 357 334 335
196 197 197 197 197 198 201 202 201 200 201 202 202 203 204 205 205 204 204 204 203 200 197 197 198 201 205 208 211 214 216 216 216 219 221 224 225 222 218 211 205 204 207 208 210 216 220 221 220 217 214 213 213 216 216 217 219 218 217 218 221 221 216 217 220 221 222 218 204 182 160 309 355 10 29 65 53 52 45 33 24 354 323 324 342